Torna al catalogo

IRIDIUM 69

AttivoComunicazioniPO
NORAD 25319·PAYLOAD·🇺🇸 United States

Lanciato May 2, 1998 da Taiyuan Satellite Launch Center

Loading…

Prossimi Passaggi (prossime 24 ore)

TLE

AggiornatoSource: Space-Track

Epoca: Sep 14, 2026, 11:09 UTC

1 25319U 98026A   26257.46470092  .00000215  00000-0  60148-4 0  9990
2 25319  86.3910 263.3445 0002096  23.5945 336.5350 14.41445175488495

Traccia IRIDIUM 69 in tempo reale con AllMySat

Download on the App Store